Year,Month,Day,Hour,Minute,Value (Times are PST for temperature in C)
2006,09,01,00,00,11.30
2006,09,01,00,01,11.30
2006,09,01,00,02,11.30
2006,09,01,00,03,11.20
2006,09,01,00,04,11.20
2006,09,01,00,05,11.20
2006,09,01,00,06,11.20
2006,09,01,00,07,11.20
2006,09,01,00,08,11.20
2006,09,01,00,09,11.10
2006,09,01,00,10,11.10
2006,09,01,00,11,11.10
2006,09,01,00,12,11.10
2006,09,01,00,13,11.10
2006,09,01,00,14,11.10
2006,09,01,00,15,11.10
2006,09,01,00,16,11.10
2006,09,01,00,17,11.10
2006,09,01,00,18,11.10
2006,09,01,00,19,11.10
2006,09,01,00,20,10.90
2006,09,01,00,21,10.90
2006,09,01,00,22,10.90
2006,09,01,00,23,10.90
2006,09,01,00,24,10.90
2006,09,01,00,25,10.90
2006,09,01,00,26,10.90
2006,09,01,00,27,10.90
2006,09,01,00,28,10.90
2006,09,01,00,29,10.90
2006,09,01,00,30,10.80
2006,09,01,00,31,10.80
2006,09,01,00,32,10.80
2006,09,01,00,33,10.80
2006,09,01,00,34,10.80
2006,09,01,00,35,10.80
2006,09,01,00,36,10.80
2006,09,01,00,37,10.80
2006,09,01,00,38,10.80
2006,09,01,00,39,10.80
2006,09,01,00,40,10.80
2006,09,01,00,41,10.80
2006,09,01,00,42,10.80
2006,09,01,00,43,10.70
2006,09,01,00,44,10.70
2006,09,01,00,45,10.70
2006,09,01,00,46,10.70
2006,09,01,00,47,10.70
2006,09,01,00,48,10.70
2006,09,01,00,49,10.70
2006,09,01,00,50,10.70
2006,09,01,00,51,10.70
2006,09,01,00,52,10.70
2006,09,01,00,53,10.70
2006,09,01,00,54,10.70
2006,09,01,00,55,10.70
2006,09,01,00,56,10.70
2006,09,01,00,57,10.70
2006,09,01,00,58,10.70
2006,09,01,00,59,10.70
2006,09,01,01,00,10.70
2006,09,01,01,01,10.60
2006,09,01,01,02,10.60
2006,09,01,01,03,10.60
2006,09,01,01,04,10.70
2006,09,01,01,05,10.70
2006,09,01,01,06,10.70
2006,09,01,01,07,10.70
2006,09,01,01,08,10.70
2006,09,01,01,09,10.70
2006,09,01,01,10,10.70
2006,09,01,01,11,10.70
2006,09,01,01,12,10.70
2006,09,01,01,13,10.70
2006,09,01,01,14,10.70
2006,09,01,01,15,10.60
2006,09,01,01,16,10.60
2006,09,01,01,17,10.60
2006,09,01,01,18,10.60
2006,09,01,01,19,10.60
2006,09,01,01,20,10.60
2006,09,01,01,21,10.60
2006,09,01,01,22,10.60
2006,09,01,01,23,10.50
2006,09,01,01,24,10.40
2006,09,01,01,25,10.40
2006,09,01,01,26,10.40
2006,09,01,01,27,10.40
2006,09,01,01,28,10.40
2006,09,01,01,29,10.40
2006,09,01,01,30,10.30
2006,09,01,01,31,10.30
2006,09,01,01,32,10.30
2006,09,01,01,33,10.30
2006,09,01,01,34,10.30
2006,09,01,01,35,10.30
2006,09,01,01,36,10.30
2006,09,01,01,37,10.30
2006,09,01,01,38,10.30
2006,09,01,01,39,10.30
2006,09,01,01,40,10.30
2006,09,01,01,41,10.30
2006,09,01,01,42,10.30
2006,09,01,01,43,10.30
2006,09,01,01,44,10.40
2006,09,01,01,45,10.40
2006,09,01,01,46,10.40
2006,09,01,01,47,10.40
2006,09,01,01,48,10.40
2006,09,01,01,49,10.40
2006,09,01,01,50,10.40
2006,09,01,01,51,10.40
2006,09,01,01,52,10.40
2006,09,01,01,53,10.40
2006,09,01,01,54,10.40
2006,09,01,01,55,10.40
2006,09,01,01,56,10.40
2006,09,01,01,57,10.40
2006,09,01,01,58,10.40
2006,09,01,01,59,10.40
2006,09,01,02,00,10.40
2006,09,01,02,01,10.40
2006,09,01,02,02,10.40
2006,09,01,02,03,10.40
2006,09,01,02,04,10.40
2006,09,01,02,05,10.40
2006,09,01,02,06,10.40
2006,09,01,02,07,10.40
2006,09,01,02,08,10.40
2006,09,01,02,09,10.40
2006,09,01,02,10,10.40
2006,09,01,02,11,10.40
2006,09,01,02,12,10.40
2006,09,01,02,13,10.40
2006,09,01,02,14,10.40
2006,09,01,02,15,10.30
2006,09,01,02,16,10.30
2006,09,01,02,17,10.30
2006,09,01,02,18,10.30
2006,09,01,02,19,10.30
2006,09,01,02,20,10.30
2006,09,01,02,21,10.30
2006,09,01,02,22,10.30
2006,09,01,02,23,10.30
2006,09,01,02,24,10.30
2006,09,01,02,25,10.30
2006,09,01,02,26,10.30
2006,09,01,02,27,10.30
2006,09,01,02,28,10.30
2006,09,01,02,29,10.30
2006,09,01,02,30,10.30
2006,09,01,02,31,10.30
2006,09,01,02,32,10.20
2006,09,01,02,33,10.20
2006,09,01,02,34,10.20
2006,09,01,02,35,10.20
2006,09,01,02,36,10.20
2006,09,01,02,37,10.10
2006,09,01,02,38,10.10
2006,09,01,02,39,10.10
2006,09,01,02,40,10.10
2006,09,01,02,41,10.10
2006,09,01,02,42,10.10
2006,09,01,02,43,10.10
2006,09,01,02,44,10.10
2006,09,01,02,45,10.10
2006,09,01,02,46,10.10
2006,09,01,02,47,10.10
2006,09,01,02,48,9.90
2006,09,01,02,49,9.90
2006,09,01,02,50,9.90
2006,09,01,02,51,9.90
2006,09,01,02,52,9.90
2006,09,01,02,53,9.90
2006,09,01,02,54,9.90
2006,09,01,02,55,9.90
2006,09,01,02,56,9.90
2006,09,01,02,57,9.90
2006,09,01,02,58,9.90
2006,09,01,02,59,9.90
2006,09,01,03,00,9.90
2006,09,01,03,01,9.90
2006,09,01,03,02,9.90
2006,09,01,03,03,9.90
2006,09,01,03,04,9.90
2006,09,01,03,05,9.90
2006,09,01,03,06,9.90
2006,09,01,03,07,9.90
2006,09,01,03,08,9.90
2006,09,01,03,09,9.90
2006,09,01,03,10,9.90
2006,09,01,03,11,9.90
2006,09,01,03,12,9.90
2006,09,01,03,13,9.90
2006,09,01,03,14,9.90
2006,09,01,03,15,9.90
2006,09,01,03,16,9.90
2006,09,01,03,17,9.90
2006,09,01,03,18,9.90
2006,09,01,03,19,9.90
2006,09,01,03,20,9.90
2006,09,01,03,21,9.90
2006,09,01,03,22,9.90
2006,09,01,03,23,9.90
2006,09,01,03,24,9.90
2006,09,01,03,25,9.90
2006,09,01,03,26,9.90
2006,09,01,03,27,9.90
2006,09,01,03,28,9.90
2006,09,01,03,29,9.90
2006,09,01,03,30,9.90
2006,09,01,03,31,9.90
2006,09,01,03,32,9.90
2006,09,01,03,33,9.90
2006,09,01,03,34,9.80
2006,09,01,03,35,9.80
2006,09,01,03,36,9.80
2006,09,01,03,37,9.80
2006,09,01,03,38,9.80
2006,09,01,03,39,9.80
2006,09,01,03,40,9.80
2006,09,01,03,41,9.70
2006,09,01,03,42,9.70
2006,09,01,03,43,9.70
2006,09,01,03,44,9.70
2006,09,01,03,45,9.70
2006,09,01,03,46,9.70
2006,09,01,03,47,9.70
2006,09,01,03,48,9.70
2006,09,01,03,49,9.70
2006,09,01,03,50,9.70
2006,09,01,03,51,9.80
2006,09,01,03,52,9.80
2006,09,01,03,53,9.80
2006,09,01,03,54,9.80
2006,09,01,03,55,9.80
2006,09,01,03,56,9.80
2006,09,01,03,57,9.80
2006,09,01,03,58,9.80
2006,09,01,03,59,9.80
2006,09,01,04,00,9.80
2006,09,01,04,01,9.80
2006,09,01,04,02,9.80
2006,09,01,04,03,9.80
2006,09,01,04,04,9.80
2006,09,01,04,05,9.70
2006,09,01,04,06,9.70
2006,09,01,04,07,9.70
2006,09,01,04,08,9.70
2006,09,01,04,09,9.70
2006,09,01,04,10,9.70
2006,09,01,04,11,9.80
2006,09,01,04,12,9.80
2006,09,01,04,13,9.80
2006,09,01,04,14,9.80
2006,09,01,04,15,9.80
2006,09,01,04,16,9.80
2006,09,01,04,17,9.80
2006,09,01,04,18,9.80
2006,09,01,04,19,9.80
2006,09,01,04,20,9.70
2006,09,01,04,21,9.70
2006,09,01,04,22,9.70
2006,09,01,04,23,9.70
2006,09,01,04,24,9.70
2006,09,01,04,25,9.70
2006,09,01,04,26,9.70
2006,09,01,04,27,9.70
2006,09,01,04,28,9.70
2006,09,01,04,29,9.70
2006,09,01,04,30,9.70
2006,09,01,04,31,9.70
2006,09,01,04,32,9.70
2006,09,01,04,33,9.70
2006,09,01,04,34,9.70
2006,09,01,04,35,9.80
2006,09,01,04,36,9.80
2006,09,01,04,37,9.90
2006,09,01,04,38,10.00
2006,09,01,04,39,10.10
2006,09,01,04,40,10.20
2006,09,01,04,41,10.20
2006,09,01,04,42,10.30
2006,09,01,04,43,10.40
2006,09,01,04,44,10.40
2006,09,01,04,45,10.50
2006,09,01,04,46,10.60
2006,09,01,04,47,10.60
2006,09,01,04,48,10.60
2006,09,01,04,49,10.60
2006,09,01,04,50,10.60
2006,09,01,04,51,10.50
2006,09,01,04,52,10.40
2006,09,01,04,53,10.40
2006,09,01,04,54,10.40
2006,09,01,04,55,10.30
2006,09,01,04,56,10.30
2006,09,01,04,57,10.20
2006,09,01,04,58,10.20
2006,09,01,04,59,10.20
2006,09,01,05,00,10.20
2006,09,01,05,01,10.20
2006,09,01,05,02,10.20
2006,09,01,05,03,10.20
2006,09,01,05,04,10.20
2006,09,01,05,05,10.20
2006,09,01,05,06,10.10
2006,09,01,05,07,10.10
2006,09,01,05,08,10.10
2006,09,01,05,09,10.00
2006,09,01,05,10,9.90
2006,09,01,05,11,9.90
2006,09,01,05,12,9.90
2006,09,01,05,13,9.90
2006,09,01,05,14,9.90
2006,09,01,05,15,10.00
2006,09,01,05,16,10.10
2006,09,01,05,17,10.10
2006,09,01,05,18,10.20
2006,09,01,05,19,10.20
2006,09,01,05,20,10.20
2006,09,01,05,21,10.30
2006,09,01,05,22,10.30
2006,09,01,05,23,10.30
2006,09,01,05,24,10.30
2006,09,01,05,25,10.30
2006,09,01,05,26,10.40
2006,09,01,05,27,10.40
2006,09,01,05,28,10.40
2006,09,01,05,29,10.60
2006,09,01,05,30,10.70
2006,09,01,05,31,10.80
2006,09,01,05,32,10.90
2006,09,01,05,33,11.10
2006,09,01,05,34,11.30
2006,09,01,05,35,11.40
2006,09,01,05,36,11.40
2006,09,01,05,37,11.50
2006,09,01,05,38,11.60
2006,09,01,05,39,11.60
2006,09,01,05,40,11.60
2006,09,01,05,41,11.60
2006,09,01,05,42,11.60
2006,09,01,05,43,11.60
2006,09,01,05,44,11.60
2006,09,01,05,45,11.60
2006,09,01,05,46,11.60
2006,09,01,05,47,11.60
2006,09,01,05,48,11.60
2006,09,01,05,49,11.60
2006,09,01,05,50,11.60
2006,09,01,05,51,11.70
2006,09,01,05,52,11.70
2006,09,01,05,53,11.70
2006,09,01,05,54,11.70
2006,09,01,05,55,11.80
2006,09,01,05,56,11.80
2006,09,01,05,57,11.80
2006,09,01,05,58,11.80
2006,09,01,05,59,11.80
2006,09,01,06,00,11.80
2006,09,01,06,01,11.80
2006,09,01,06,02,11.80
2006,09,01,06,03,11.80
2006,09,01,06,04,11.80
2006,09,01,06,05,11.80
2006,09,01,06,06,11.80
2006,09,01,06,07,11.80
2006,09,01,06,08,11.70
2006,09,01,06,09,11.70
2006,09,01,06,10,11.70
2006,09,01,06,11,11.70
2006,09,01,06,12,11.70
2006,09,01,06,13,11.70
2006,09,01,06,14,11.60
2006,09,01,06,15,11.60
2006,09,01,06,16,11.60
2006,09,01,06,17,11.60
2006,09,01,06,18,11.70
2006,09,01,06,19,11.70
2006,09,01,06,20,11.70
2006,09,01,06,21,11.80
2006,09,01,06,22,11.80
2006,09,01,06,23,11.70
2006,09,01,06,24,11.70
2006,09,01,06,25,11.70
2006,09,01,06,26,11.70
2006,09,01,06,27,11.70
2006,09,01,06,28,11.80
2006,09,01,06,29,11.80
2006,09,01,06,30,11.80
2006,09,01,06,31,11.90
2006,09,01,06,32,12.00
2006,09,01,06,33,12.00
2006,09,01,06,34,12.00
2006,09,01,06,35,12.10
2006,09,01,06,36,12.10
2006,09,01,06,37,12.10
2006,09,01,06,38,12.10
2006,09,01,06,39,12.10
2006,09,01,06,40,12.10
2006,09,01,06,41,12.00
2006,09,01,06,42,12.00
2006,09,01,06,43,11.90
2006,09,01,06,44,11.80
2006,09,01,06,45,11.80
2006,09,01,06,46,11.80
2006,09,01,06,47,11.80
2006,09,01,06,48,11.70
2006,09,01,06,49,11.70
2006,09,01,06,50,11.60
2006,09,01,06,51,11.60
2006,09,01,06,52,11.60
2006,09,01,06,53,11.60
2006,09,01,06,54,11.60
2006,09,01,06,55,11.50
2006,09,01,06,56,11.50
2006,09,01,06,57,11.60
2006,09,01,06,58,11.60
2006,09,01,06,59,11.60
2006,09,01,07,00,11.60
2006,09,01,07,01,11.70
2006,09,01,07,02,11.80
2006,09,01,07,03,11.90
2006,09,01,07,04,12.00
2006,09,01,07,05,12.10
2006,09,01,07,06,12.10
2006,09,01,07,07,12.20
2006,09,01,07,08,12.30
2006,09,01,07,09,12.30
2006,09,01,07,10,12.40
2006,09,01,07,11,12.50
2006,09,01,07,12,12.50
2006,09,01,07,13,12.60
2006,09,01,07,14,12.70
2006,09,01,07,15,12.80
2006,09,01,07,16,12.90
2006,09,01,07,17,12.90
2006,09,01,07,18,13.00
2006,09,01,07,19,13.10
2006,09,01,07,20,13.10
2006,09,01,07,21,13.20
2006,09,01,07,22,13.20
2006,09,01,07,23,13.30
2006,09,01,07,24,13.30
2006,09,01,07,25,13.40
2006,09,01,07,26,13.40
2006,09,01,07,27,13.50
2006,09,01,07,28,13.50
2006,09,01,07,29,13.60
2006,09,01,07,30,13.60
2006,09,01,07,31,13.70
2006,09,01,07,32,13.80
2006,09,01,07,33,13.90
2006,09,01,07,34,13.90
2006,09,01,07,35,14.00
2006,09,01,07,36,14.00
2006,09,01,07,37,14.10
2006,09,01,07,38,14.20
2006,09,01,07,39,14.30
2006,09,01,07,40,14.40
2006,09,01,07,41,14.50
2006,09,01,07,42,14.50
2006,09,01,07,43,14.60
2006,09,01,07,44,14.70
2006,09,01,07,45,14.80
2006,09,01,07,46,14.80
2006,09,01,07,47,14.80
2006,09,01,07,48,14.90
2006,09,01,07,49,14.90
2006,09,01,07,50,15.00
2006,09,01,07,51,15.10
2006,09,01,07,52,15.20
2006,09,01,07,53,15.20
2006,09,01,07,54,15.30
2006,09,01,07,55,15.30
2006,09,01,07,56,15.30
2006,09,01,07,57,15.30
2006,09,01,07,58,15.30
2006,09,01,07,59,15.30
2006,09,01,08,00,15.30
2006,09,01,08,01,15.40
2006,09,01,08,02,15.40
2006,09,01,08,03,15.40
2006,09,01,08,04,15.50
2006,09,01,08,05,15.50
2006,09,01,08,06,15.60
2006,09,01,08,07,15.70
2006,09,01,08,08,15.70
2006,09,01,08,09,15.80
2006,09,01,08,10,15.80
2006,09,01,08,11,15.90
2006,09,01,08,12,16.00
2006,09,01,08,13,16.10
2006,09,01,08,14,16.10
2006,09,01,08,15,16.20
2006,09,01,08,16,16.30
2006,09,01,08,17,16.30
2006,09,01,08,18,16.40
2006,09,01,08,19,16.50
2006,09,01,08,20,16.60
2006,09,01,08,21,16.70
2006,09,01,08,22,16.80
2006,09,01,08,23,16.90
2006,09,01,08,24,17.00
2006,09,01,08,25,17.00
2006,09,01,08,26,17.10
2006,09,01,08,27,17.20
2006,09,01,08,28,17.30
2006,09,01,08,29,17.30
2006,09,01,08,30,17.40
2006,09,01,08,31,17.40
2006,09,01,08,32,17.50
2006,09,01,08,33,17.60
2006,09,01,08,34,17.60
2006,09,01,08,35,17.60
2006,09,01,08,36,17.60
2006,09,01,08,37,17.70
2006,09,01,08,38,17.70
2006,09,01,08,39,17.70
2006,09,01,08,40,17.80
2006,09,01,08,41,17.80
2006,09,01,08,42,17.90
2006,09,01,08,43,17.90
2006,09,01,08,44,17.90
2006,09,01,08,45,17.90
2006,09,01,08,46,17.90
2006,09,01,08,47,17.90
2006,09,01,08,48,17.90
2006,09,01,08,49,18.00
2006,09,01,08,50,18.10
2006,09,01,08,51,18.10
2006,09,01,08,52,18.10
2006,09,01,08,53,18.10
2006,09,01,08,54,18.20
2006,09,01,08,55,18.20
2006,09,01,08,56,18.20
2006,09,01,08,57,18.30
2006,09,01,08,58,18.30
2006,09,01,08,59,18.40
2006,09,01,09,00,18.50
2006,09,01,09,01,18.50
2006,09,01,09,02,18.60
2006,09,01,09,03,18.60
2006,09,01,09,04,18.70
2006,09,01,09,05,18.70
2006,09,01,09,06,18.80
2006,09,01,09,07,18.80
2006,09,01,09,08,18.80
2006,09,01,09,09,18.80
2006,09,01,09,10,18.80
2006,09,01,09,11,18.90
2006,09,01,09,12,18.90
2006,09,01,09,13,19.00
2006,09,01,09,14,19.10
2006,09,01,09,15,19.10
2006,09,01,09,16,19.10
2006,09,01,09,17,19.20
2006,09,01,09,18,19.30
2006,09,01,09,19,19.40
2006,09,01,09,20,19.40
2006,09,01,09,21,19.50
2006,09,01,09,22,19.50
2006,09,01,09,23,19.60
2006,09,01,09,24,19.60
2006,09,01,09,25,19.60
2006,09,01,09,26,19.70
2006,09,01,09,27,19.80
2006,09,01,09,28,19.80
2006,09,01,09,29,19.90
2006,09,01,09,30,19.90
2006,09,01,09,31,19.90
2006,09,01,09,32,19.90
2006,09,01,09,33,19.90
2006,09,01,09,34,19.90
2006,09,01,09,35,19.90
2006,09,01,09,36,19.90
2006,09,01,09,37,19.90
2006,09,01,09,38,19.90
2006,09,01,09,39,19.90
2006,09,01,09,40,19.90
2006,09,01,09,41,19.90
2006,09,01,09,42,19.90
2006,09,01,09,43,19.90
2006,09,01,09,44,19.90
2006,09,01,09,45,19.90
2006,09,01,09,46,19.90
2006,09,01,09,47,19.90
2006,09,01,09,48,19.90
2006,09,01,09,49,19.90
2006,09,01,09,50,20.00
2006,09,01,09,51,20.10
2006,09,01,09,52,20.10
2006,09,01,09,53,20.10
2006,09,01,09,54,20.00
2006,09,01,09,55,19.90
2006,09,01,09,56,19.90
2006,09,01,09,57,19.90
2006,09,01,09,58,20.00
2006,09,01,09,59,20.00
2006,09,01,10,00,19.90
2006,09,01,10,01,19.90
2006,09,01,10,02,19.90
2006,09,01,10,03,19.90
2006,09,01,10,04,19.90
2006,09,01,10,05,19.90
2006,09,01,10,06,19.90
2006,09,01,10,07,19.90
2006,09,01,10,08,19.90
2006,09,01,10,09,19.90
2006,09,01,10,10,19.90
2006,09,01,10,11,19.90
2006,09,01,10,12,20.00
2006,09,01,10,13,20.10
2006,09,01,10,14,20.20
2006,09,01,10,15,20.20
2006,09,01,10,16,20.20
2006,09,01,10,17,20.30
2006,09,01,10,18,20.30
2006,09,01,10,19,20.30
2006,09,01,10,20,20.30
2006,09,01,10,21,20.30
2006,09,01,10,22,20.30
2006,09,01,10,23,20.30
2006,09,01,10,24,20.40
2006,09,01,10,25,20.40
2006,09,01,10,26,20.40
2006,09,01,10,27,20.50
2006,09,01,10,28,20.50
2006,09,01,10,29,20.50
2006,09,01,10,30,20.50
2006,09,01,10,31,20.40
2006,09,01,10,32,20.50
2006,09,01,10,33,20.40
2006,09,01,10,34,20.50
2006,09,01,10,35,20.50
2006,09,01,10,36,20.60
2006,09,01,10,37,20.60
2006,09,01,10,38,20.60
2006,09,01,10,39,20.70
2006,09,01,10,40,20.70
2006,09,01,10,41,20.80
2006,09,01,10,42,20.80
2006,09,01,10,43,20.80
2006,09,01,10,44,20.70
2006,09,01,10,45,20.70
2006,09,01,10,46,20.80
2006,09,01,10,47,20.80
2006,09,01,10,48,20.90
2006,09,01,10,49,21.00
2006,09,01,10,50,21.00
2006,09,01,10,51,21.10
2006,09,01,10,52,21.20
2006,09,01,10,53,21.20
2006,09,01,10,54,21.10
2006,09,01,10,55,21.10
2006,09,01,10,56,21.10
2006,09,01,10,57,21.10
2006,09,01,10,58,21.10
2006,09,01,10,59,21.10
2006,09,01,11,00,21.20
2006,09,01,11,01,21.20
2006,09,01,11,02,21.30
2006,09,01,11,03,21.30
2006,09,01,11,04,21.30
2006,09,01,11,05,21.30
2006,09,01,11,06,21.30
2006,09,01,11,07,21.30
2006,09,01,11,08,21.30
2006,09,01,11,09,21.30
2006,09,01,11,10,21.30
2006,09,01,11,11,21.40
2006,09,01,11,12,21.40
2006,09,01,11,13,21.50
2006,09,01,11,14,21.60
2006,09,01,11,15,21.60
2006,09,01,11,16,21.60
2006,09,01,11,17,21.60
2006,09,01,11,18,21.70
2006,09,01,11,19,21.60
2006,09,01,11,20,21.60
2006,09,01,11,21,21.60
2006,09,01,11,22,21.60
2006,09,01,11,23,21.60
2006,09,01,11,24,21.70
2006,09,01,11,25,21.70
2006,09,01,11,26,21.70
2006,09,01,11,27,21.70
2006,09,01,11,28,21.70
2006,09,01,11,29,21.70
2006,09,01,11,30,21.60
2006,09,01,11,31,21.60
2006,09,01,11,32,21.60
2006,09,01,11,33,21.70
2006,09,01,11,34,21.80
2006,09,01,11,35,21.80
2006,09,01,11,36,21.90
2006,09,01,11,37,21.90
2006,09,01,11,38,22.00
2006,09,01,11,39,22.00
2006,09,01,11,40,22.00
2006,09,01,11,41,22.00
2006,09,01,11,42,22.10
2006,09,01,11,43,22.10
2006,09,01,11,44,22.00
2006,09,01,11,45,22.00
2006,09,01,11,46,21.90
2006,09,01,11,47,21.90
2006,09,01,11,48,21.80
2006,09,01,11,49,21.70
2006,09,01,11,50,21.70
2006,09,01,11,51,21.70
2006,09,01,11,52,21.80
2006,09,01,11,53,21.80
2006,09,01,11,54,21.80
2006,09,01,11,55,21.90
2006,09,01,11,56,22.00
2006,09,01,11,57,22.10
2006,09,01,11,58,22.10
2006,09,01,11,59,22.10
2006,09,01,12,00,22.00
2006,09,01,12,01,22.00
2006,09,01,12,02,22.00
2006,09,01,12,03,22.00
2006,09,01,12,04,22.10
2006,09,01,12,05,22.10
2006,09,01,12,06,22.10
2006,09,01,12,07,22.10
2006,09,01,12,08,22.20
2006,09,01,12,09,22.20
2006,09,01,12,10,22.20
2006,09,01,12,11,22.20
2006,09,01,12,12,22.20
2006,09,01,12,13,22.10
2006,09,01,12,14,22.20
2006,09,01,12,15,22.20
2006,09,01,12,16,22.20
2006,09,01,12,17,22.30
2006,09,01,12,18,22.40
2006,09,01,12,19,22.50
2006,09,01,12,20,22.60
2006,09,01,12,21,22.70
2006,09,01,12,22,22.80
2006,09,01,12,23,22.90
2006,09,01,12,24,22.90
2006,09,01,12,25,22.80
2006,09,01,12,26,22.70
2006,09,01,12,27,22.70
2006,09,01,12,28,22.70
2006,09,01,12,29,22.70
2006,09,01,12,30,22.70
2006,09,01,12,31,22.70
2006,09,01,12,32,22.70
2006,09,01,12,33,22.70
2006,09,01,12,34,22.70
2006,09,01,12,35,22.70
2006,09,01,12,36,22.70
2006,09,01,12,37,22.70
2006,09,01,12,38,22.80
2006,09,01,12,39,22.80
2006,09,01,12,40,22.70
2006,09,01,12,41,22.70
2006,09,01,12,42,22.80
2006,09,01,12,43,22.80
2006,09,01,12,44,22.80
2006,09,01,12,45,22.90
2006,09,01,12,46,23.00
2006,09,01,12,47,23.10
2006,09,01,12,48,23.20
2006,09,01,12,49,23.30
2006,09,01,12,50,23.30
2006,09,01,12,51,23.30
2006,09,01,12,52,23.30
2006,09,01,12,53,23.30
2006,09,01,12,54,23.30
2006,09,01,12,55,23.30
2006,09,01,12,56,23.30
2006,09,01,12,57,23.40
2006,09,01,12,58,23.50
2006,09,01,12,59,23.60
2006,09,01,13,00,23.60
2006,09,01,13,01,23.70
2006,09,01,13,02,23.70
2006,09,01,13,03,23.70
2006,09,01,13,04,23.80
2006,09,01,13,05,23.80
2006,09,01,13,06,23.80
2006,09,01,13,07,23.80
2006,09,01,13,08,23.70
2006,09,01,13,09,23.70
2006,09,01,13,10,23.70
2006,09,01,13,11,23.70
2006,09,01,13,12,23.70
2006,09,01,13,13,23.70
2006,09,01,13,14,23.70
2006,09,01,13,15,23.60
2006,09,01,13,16,23.60
2006,09,01,13,17,23.60
2006,09,01,13,18,23.60
2006,09,01,13,19,23.60
2006,09,01,13,20,23.60
2006,09,01,13,21,23.70
2006,09,01,13,22,23.70
2006,09,01,13,23,23.70
2006,09,01,13,24,23.70
2006,09,01,13,25,23.70
2006,09,01,13,26,23.70
2006,09,01,13,27,23.70
2006,09,01,13,28,23.70
2006,09,01,13,29,23.70
2006,09,01,13,30,23.70
2006,09,01,13,31,23.70
2006,09,01,13,32,23.70
2006,09,01,13,33,23.70
2006,09,01,13,34,23.70
2006,09,01,13,35,23.70
2006,09,01,13,36,23.80
2006,09,01,13,37,23.80
2006,09,01,13,38,23.90
2006,09,01,13,39,23.90
2006,09,01,13,40,24.00
2006,09,01,13,41,24.10
2006,09,01,13,42,24.10
2006,09,01,13,43,24.20
2006,09,01,13,44,24.30
2006,09,01,13,45,24.40
2006,09,01,13,46,24.50
2006,09,01,13,47,24.60
2006,09,01,13,48,24.70
2006,09,01,13,49,24.80
2006,09,01,13,50,24.80
2006,09,01,13,51,24.70
2006,09,01,13,52,24.70
2006,09,01,13,53,24.70
2006,09,01,13,54,24.70
2006,09,01,13,55,24.70
2006,09,01,13,56,24.80
2006,09,01,13,57,24.80
2006,09,01,13,58,24.70
2006,09,01,13,59,24.60
2006,09,01,14,00,24.60
2006,09,01,14,01,24.70
2006,09,01,14,02,24.80
2006,09,01,14,03,24.80
2006,09,01,14,04,24.80
2006,09,01,14,05,24.80
2006,09,01,14,06,24.80
2006,09,01,14,07,24.80
2006,09,01,14,08,24.80
2006,09,01,14,09,24.80
2006,09,01,14,10,24.90
2006,09,01,14,11,25.00
2006,09,01,14,12,25.00
2006,09,01,14,13,25.00
2006,09,01,14,14,25.00
2006,09,01,14,15,25.00
2006,09,01,14,16,24.90
2006,09,01,14,17,25.00
2006,09,01,14,18,25.00
2006,09,01,14,19,25.00
2006,09,01,14,20,25.00
2006,09,01,14,21,25.00
2006,09,01,14,22,25.00
2006,09,01,14,23,25.00
2006,09,01,14,24,25.00
2006,09,01,14,25,25.00
2006,09,01,14,26,25.10
2006,09,01,14,27,25.10
2006,09,01,14,28,25.20
2006,09,01,14,29,25.20
2006,09,01,14,30,25.20
2006,09,01,14,31,25.20
2006,09,01,14,32,25.20
2006,09,01,14,33,25.10
2006,09,01,14,34,25.10
2006,09,01,14,35,25.10
2006,09,01,14,36,25.00
2006,09,01,14,37,25.00
2006,09,01,14,38,25.00
2006,09,01,14,39,25.00
2006,09,01,14,40,25.00
2006,09,01,14,41,25.10
2006,09,01,14,42,25.00
2006,09,01,14,43,25.10
2006,09,01,14,44,25.20
2006,09,01,14,45,25.20
2006,09,01,14,46,25.20
2006,09,01,14,47,25.30
2006,09,01,14,48,25.40
2006,09,01,14,49,25.40
2006,09,01,14,50,25.50
2006,09,01,14,51,25.50
2006,09,01,14,52,25.50
2006,09,01,14,53,25.60
2006,09,01,14,54,25.60
2006,09,01,14,55,25.60
2006,09,01,14,56,25.70
2006,09,01,14,57,25.70
2006,09,01,14,58,25.70
2006,09,01,14,59,25.70
2006,09,01,15,00,25.70
2006,09,01,15,01,25.70
2006,09,01,15,02,25.80
2006,09,01,15,03,25.80
2006,09,01,15,04,25.80
2006,09,01,15,05,25.80
2006,09,01,15,06,25.90
2006,09,01,15,07,25.90
2006,09,01,15,08,26.10
2006,09,01,15,09,26.20
2006,09,01,15,10,26.20
2006,09,01,15,11,26.20
2006,09,01,15,12,26.20
2006,09,01,15,13,26.10
2006,09,01,15,14,26.00
2006,09,01,15,15,26.00
2006,09,01,15,16,26.00
2006,09,01,15,17,26.00
2006,09,01,15,18,26.10
2006,09,01,15,19,26.10
2006,09,01,15,20,26.20
2006,09,01,15,21,26.20
2006,09,01,15,22,26.10
2006,09,01,15,23,26.10
2006,09,01,15,24,26.10
2006,09,01,15,25,26.10
2006,09,01,15,26,26.10
2006,09,01,15,27,26.10
2006,09,01,15,28,26.00
2006,09,01,15,29,26.00
2006,09,01,15,30,26.00
2006,09,01,15,31,26.00
2006,09,01,15,32,26.00
2006,09,01,15,33,26.00
2006,09,01,15,34,26.00
2006,09,01,15,35,26.00
2006,09,01,15,36,25.90
2006,09,01,15,37,25.90
2006,09,01,15,38,26.00
2006,09,01,15,39,26.00
2006,09,01,15,40,26.10
2006,09,01,15,41,26.10
2006,09,01,15,42,26.10
2006,09,01,15,43,26.20
2006,09,01,15,44,26.20
2006,09,01,15,45,26.20
2006,09,01,15,46,26.20
2006,09,01,15,47,26.30
2006,09,01,15,48,26.30
2006,09,01,15,49,26.30
2006,09,01,15,50,26.40
2006,09,01,15,51,26.40
2006,09,01,15,52,26.40
2006,09,01,15,53,26.40
2006,09,01,15,54,26.40
2006,09,01,15,55,26.40
2006,09,01,15,56,26.50
2006,09,01,15,57,26.60
2006,09,01,15,58,26.60
2006,09,01,15,59,26.60
2006,09,01,16,00,26.60
2006,09,01,16,01,26.70
2006,09,01,16,02,26.80
2006,09,01,16,03,26.70
2006,09,01,16,04,26.70
2006,09,01,16,05,26.70
2006,09,01,16,06,26.70
2006,09,01,16,07,26.70
2006,09,01,16,08,26.60
2006,09,01,16,09,26.60
2006,09,01,16,10,26.60
2006,09,01,16,11,26.60
2006,09,01,16,12,26.60
2006,09,01,16,13,26.60
2006,09,01,16,14,26.70
2006,09,01,16,15,26.70
2006,09,01,16,16,26.70
2006,09,01,16,17,26.70
2006,09,01,16,18,26.70
2006,09,01,16,19,26.70
2006,09,01,16,20,26.70
2006,09,01,16,21,26.70
2006,09,01,16,22,26.70
2006,09,01,16,23,26.70
2006,09,01,16,24,26.80
2006,09,01,16,25,27.00
2006,09,01,16,26,27.10
2006,09,01,16,27,27.20
2006,09,01,16,28,27.20
2006,09,01,16,29,27.20
2006,09,01,16,30,27.10
2006,09,01,16,31,27.10
2006,09,01,16,32,27.10
2006,09,01,16,33,27.00
2006,09,01,16,34,26.90
2006,09,01,16,35,26.80
2006,09,01,16,36,26.80
2006,09,01,16,37,26.80
2006,09,01,16,38,26.80
2006,09,01,16,39,26.80
2006,09,01,16,40,26.80
2006,09,01,16,41,26.80
2006,09,01,16,42,26.80
2006,09,01,16,43,26.70
2006,09,01,16,44,26.70
2006,09,01,16,45,26.70
2006,09,01,16,46,26.70
2006,09,01,16,47,26.70
2006,09,01,16,48,26.80
2006,09,01,16,49,26.80
2006,09,01,16,50,26.80
2006,09,01,16,51,26.70
2006,09,01,16,52,26.70
2006,09,01,16,53,26.70
2006,09,01,16,54,26.80
2006,09,01,16,55,26.80
2006,09,01,16,56,26.80
2006,09,01,16,57,26.80
2006,09,01,16,58,26.80
2006,09,01,16,59,26.70
2006,09,01,17,00,26.60
2006,09,01,17,01,26.70
2006,09,01,17,02,26.70
2006,09,01,17,03,26.70
2006,09,01,17,04,26.80
2006,09,01,17,05,26.80
2006,09,01,17,06,26.90
2006,09,01,17,07,26.90
2006,09,01,17,08,26.90
2006,09,01,17,09,26.90
2006,09,01,17,10,26.90
2006,09,01,17,11,26.80
2006,09,01,17,12,26.70
2006,09,01,17,13,26.50
2006,09,01,17,14,26.30
2006,09,01,17,15,26.00
2006,09,01,17,16,25.80
2006,09,01,17,17,25.70
2006,09,01,17,18,25.50
2006,09,01,17,19,25.40
2006,09,01,17,20,25.30
2006,09,01,17,21,25.20
2006,09,01,17,22,25.20
2006,09,01,17,23,25.20
2006,09,01,17,24,25.10